Temp
58 56 57 57 56 54 53 52 52 50 49 48 48 47 45 43 41 42 41 42 42 41
55 56 56 57 57 54 55 51 46 48 48 46 46 46 45 44 43 42 41 41 41 41
55 57 57 57 55 54 51 52 49 47 47 46 47 46 46 44 43 43 40 41 42 40
54 55 54 54 56 53 51 50 49 49 48 47 46 46 46 45 44 43 42 42 42 40
55 54 55 54 54 52 51 51 50 48 48 47 46 45 45 45 44 42 40 41 40 39
54 53 53 51 51 51 50 50 49 48 47 46 45 45 44 44 43 42 41 39 39 37
53 53 53 52 50 51 50 49 48 49 48 46 45 45 44 43 42 40 40 39 38 37
53 54 53 51 49 49 49 49 49 47 46 45 44 45 43 41 40 39 38 37 38 37
53 53 51 50 48 47 47 48 48 45 44 42 46 46 45 43 40 39 38 36 36 38
53 51 49 48 45 44 43 45 46 45 44 44 44 46 46 44 40 38 36 36 36 38
52 50 49 47 46 44 43 43 43 43 44 42 44 46 45 43 38 37 36 36 36 36
51 49 46 44 42 42 42 42 42 42 42 42 43 45 44 40 37 36 35 36 36 36
49 45 43 41 39 40 40 40 42 42 43 44 42 44 43 40 37 34 34 35 37 39
45 43 41 39 37 37 37 39 39 39 40 40 41 41 42 41 38 36 35 34 33 35
MSLP
1011.98 1013.08 1013.94 1014.74 1016.14 1017.10 1018.07 1018.85 1018.98 1020.01 1020.76 1021.48 1022.16 1023.12 1023.97 1024.56 1025.27 1025.77 1026.23 1026.73 1027.33 1027.51
1012.10 1012.88 1013.79 1014.94 1015.43 1016.82 1017.82 1018.53 1019.67 1020.27 1021.12 1021.76 1022.43 1022.84 1023.80 1024.87 1025.31 1025.83 1026.41 1026.79 1027.44 1028.09
1011.63 1012.80 1013.29 1014.92 1015.51 1016.21 1017.94 1018.20 1019.47 1020.20 1021.11 1022.20 1022.95 1023.22 1023.61 1024.45 1025.48 1025.72 1026.41 1026.90 1027.25 1028.11
1011.35 1012.72 1013.13 1014.43 1015.77 1016.15 1017.24 1018.45 1019.34 1020.26 1020.76 1021.97 1022.97 1023.73 1023.95 1024.58 1025.10 1025.96 1026.61 1027.18 1027.56 1027.88
1010.89 1012.20 1012.96 1014.44 1015.04 1016.14 1017.25 1018.41 1019.30 1020.29 1021.09 1021.78 1022.97 1023.81 1024.37 1024.86 1025.31 1025.98 1026.91 1027.58 1028.07 1028.76
1010.56 1011.55 1012.61 1013.67 1014.77 1015.95 1017.02 1018.23 1019.29 1019.97 1021.01 1021.49 1022.55 1023.71 1024.59 1025.20 1025.84 1026.48 1027.02 1027.82 1028.33 1029.00
1009.98 1010.79 1011.97 1013.28 1014.54 1015.57 1016.92 1018.27 1019.08 1019.75 1020.91 1021.50 1022.40 1023.31 1024.26 1025.27 1026.06 1027.03 1027.65 1028.14 1028.81 1029.40
1009.54 1010.58 1011.64 1013.03 1014.26 1015.50 1016.63 1017.91 1019.25 1019.88 1021.04 1021.66 1022.44 1023.16 1024.20 1025.21 1026.32 1027.14 1028.05 1028.67 1029.23 1029.82
1009.21 1010.37 1011.42 1012.72 1013.99 1015.25 1016.54 1017.93 1018.75 1019.80 1020.66 1021.46 1022.14 1023.24 1024.05 1025.15 1026.40 1027.43 1028.16 1028.94 1029.54 1030.04
1008.79 1010.15 1011.32 1012.63 1013.99 1015.16 1016.44 1017.61 1018.64 1019.39 1020.61 1021.26 1021.88 1022.72 1023.81 1024.98 1026.48 1027.69 1028.40 1029.00 1029.52 1030.08
1008.50 1009.87 1011.18 1012.43 1013.71 1015.04 1016.36 1017.17 1018.39 1019.48 1020.29 1020.95 1021.99 1022.42 1023.86 1025.27 1026.80 1027.82 1028.86 1029.38 1029.61 1030.04
1008.23 1009.67 1011.09 1012.54 1013.98 1015.07 1016.21 1017.55 1018.80 1019.76 1020.60 1021.31 1022.21 1023.03 1024.17 1025.46 1026.78 1028.02 1029.15 1029.77 1030.11 1030.42
1008.19 1009.64 1011.17 1012.70 1014.07 1015.18 1016.96 1017.69 1018.66 1020.15 1021.20 1022.04 1022.66 1023.82 1025.08 1025.65 1026.86 1028.16 1029.37 1030.09 1030.26 1030.46
1008.77 1010.09 1011.48 1012.93 1014.41 1015.53 1016.76 1018.01 1019.60 1020.09 1021.58 1022.62 1023.33 1024.46 1025.28 1026.30 1027.37 1028.23 1029.16 1029.94 1030.68 1031.25
Wind_Speed
19 11 13 15 12 10 9 8 12 9 9 10 10 9 7 6 5 7 6 8 5 4
14 16 14 16 15 10 10 9 7 9 9 9 10 11 11 7 8 8 6 7 7 5
18 16 14 13 14 14 8 11 12 12 11 10 9 10 11 10 8 10 6 6 10 7
16 17 16 15 14 12 14 12 13 13 14 12 11 9 10 10 11 11 9 7 9 9
19 17 17 15 16 15 14 13 15 13 13 13 10 8 10 11 10 11 10 8 9 8
18 17 18 17 14 15 14 14 14 14 14 14 13 11 8 9 9 8 9 7 8 7
19 19 17 16 15 17 15 14 13 13 13 13 13 12 12 11 10 9 8 8 7 6
18 18 17 17 16 16 16 14 14 14 12 12 12 10 13 12 11 11 10 8 8 7
18 17 17 17 17 17 17 16 15 15 15 14 10 22 23 16 12 11 11 10 8 7
18 17 17 17 17 17 16 15 16 16 16 14 15 26 26 23 11 10 10 10 9 8
18 17 17 17 17 17 14 16 13 13 15 15 14 26 26 23 12 10 9 8 8 9
18 17 18 17 16 15 15 14 14 12 13 15 16 26 27 20 13 11 10 8 8 7
16 18 18 17 16 14 13 14 13 15 14 19 17 25 23 18 11 12 9 8 9 13
16 18 18 17 15 16 18 17 15 18 15 16 16 18 23 22 10 10 9 8 6 5
Wind_Direction
165 166 168 165 166 167 172 168 157 153 151 143 139 132 125 122 116 116 118 113 90 93
166 165 171 178 162 165 164 147 137 138 137 138 142 138 133 131 125 121 118 115 103 89
171 173 163 173 164 156 153 145 150 143 139 141 144 142 137 132 135 127 126 124 117 108
173 176 158 171 174 154 151 149 155 156 147 147 146 151 138 140 137 131 126 122 123 123
168 172 167 175 163 159 157 158 156 153 152 144 144 142 145 144 137 132 132 126 119 120
170 167 171 164 163 159 151 162 161 153 158 149 146 143 136 129 124 122 121 123 120 120
175 172 170 164 161 160 160 162 160 156 159 150 144 136 130 126 120 116 112 104 103 107
173 172 165 165 160 157 159 160 162 146 145 138 136 137 133 127 125 123 113 103 103 100
171 170 166 162 160 158 160 162 156 153 149 145 140 144 138 133 129 127 126 122 112 119
167 168 162 159 156 157 157 157 162 154 153 150 144 146 143 136 130 131 128 131 130 126
167 166 160 159 159 154 154 152 150 152 151 140 151 141 141 133 124 119 122 129 125 121
164 158 155 155 154 151 149 151 151 145 145 143 141 140 140 130 122 119 116 113 111 114
152 149 149 144 141 138 140 135 134 134 133 136 130 135 136 126 126 123 121 116 118 112
141 144 140 135 136 137 142 134 135 124 125 124 128 136 135 132 130 130 126 121 107 101